Tracking 23114 objects as of 14-May-2021
HD Live streaming from Space Station
objects crossing your sky now

ONEWEB-0188

Track ONEWEB-0188 now!
10-day predictions
ONEWEB-0188 is classified as:


NORAD ID: 48231
Int'l Code: 2021-031X
Perigee: 487.6 km
Apogee: 497.1 km
Inclination: 87.4 °
Period: 94.3 minutes
Semi major axis: 6863 km
RCS: Unknown
Launch date: April 25, 2021
Source: United Kingdom (UK)
Launch site: VOSTOCHNY COSMODROME (VOSTO)
aabbcc
Your satellite tracking list
Your tracking list is empty




NASA's NSSDC Master Catalog

Two Line Element Set (TLE):
1 48231U 21031X   21134.16667824 -.01469777  00000-0 -61783-1 0  9995
2 48231  87.3980 306.7155 0006928 179.3390 257.0550 15.26844784  2790
Source of the keplerian elements: AFSPC